Regional Weather Roundup
Issued by NWS

Home | Current Version | Previous Version | Graphics & Text | Print | Product List | Glossary On
Versions: 1 2 3 4 5 6 7 8 9 10 11 12 13 14 15 16 17 18 19 20 21 22 23 24 25 26 27 28 29 30 31 32 33 34 35 36 37 38 39 40 41 42 43 44 45 46 47 48 49 50
000
ASUS43 KDTX 040510
RWRMI
MICHIGAN HOURLY REGIONAL WEATHER ROUNDUP
NATIONAL WEATHER SERVICE DETROIT/PONTIAC MI
1200 AM EST WED MAR 04 2015

NOTE: "FAIR" INDICATES FEW OR NO CLOUDS BELOW 12,000 FEET WITH NO
SIGNIFICANT WEATHER AND/OR OBSTRUCTION TO VISIBILITY.

MIZ047>049-052>055-059>063-066>070-074>076-081>083-040600-
SOUTHEAST LOWER MICHIGAN

CITY           SKY/WX    TMP DP  RH WIND       PRES   REMARKS
ADRIAN         CLOUDY    34  27  75 NW14G23   29.79R WCI  25
ALMA           MOCLDY    28  22  79 W13G20    29.76R WCI  17
ANN ARBOR      CLOUDY    34  26  72 W17       29.76R WCI  23
BAD AXE        CLOUDY    29  23  79 W17G23    29.71R WCI  17
CARO           CLOUDY    29  23  77 W14       29.73R WCI  19
DETROIT CITY   CLOUDY    35  26  69 W10G22    29.76R WCI  27
DETROIT        CLOUDY    36  26  67 W12       29.76R WCI  28
FLINT          CLOUDY    32  23  69 W14       29.75R WCI  22
GROSSE ILE     CLOUDY    36  28  75 W8        29.75R WCI  29
HILLSDALE      CLOUDY    33  29  83 W14       29.76S WCI  24
HOWELL         CLOUDY    31  24  76 W15G24    29.75R WCI  20

CITY           SKY/WX    TMP DP  RH WIND       PRES   REMARKS
JACKSON        CLOUDY    32  25  75 W16G22    29.76R WCI  21
LAMBERTVILLE   CLOUDY    36  30  80 W9        29.78S WCI  29
LANSING        CLOUDY    30  23  75 W17       29.78R WCI  18
LAPEER         CLOUDY    31  24  75 NW18G24   29.74R WCI  19
MASON          CLOUDY    31  24  76 W10       29.77R WCI  22
MONROE         CLOUDY    36  28  75 W14       29.76R WCI  27
MT. CLEMENS    CLOUDY    35  27  73 W9        29.72R WCI  27
PONTIAC        CLOUDY    31  24  75 W22G28    29.73R WCI  18
PORT HOPE        N/A     30  21  69 W16G22    29.68R WCI  19
PORT HURON     CLOUDY    32  25  74 W13G23    29.74R WCI  22
TRI CITIES     CLOUDY    31  21  66 W18       29.75R WCI  19
TROY           CLOUDY    36  27  70 W8        29.76R WCI  29
SAGINAW HB     CLOUDY    30  23  74 W13       29.75R WCI  20
$$
MIZ043>046-050>051-056>058-064>065-071>073-077>080-040600-
SOUTHWEST LOWER MICHIGAN

CITY           SKY/WX    TMP DP  RH WIND       PRES   REMARKS
BATTLE CREEK   CLOUDY    32  24  72 NW13      29.80R WCI  22
BENTON HARBOR  CLOUDY    31  26  82 W9        29.84R WCI  23
BIG RAPIDS     CLOUDY    27  24  89 W7        29.74R WCI  19
COLDWATER      CLOUDY    33  27  80 W13G18    29.78S WCI  23
FREMONT        CLOUDY    28  23  80 W6        29.77F WCI  22
HOLLAND        CLOUDY    31  23  72 W7        29.81S WCI  24
GRAND RAPIDS   CLOUDY    30  22  72 W14       29.79R WCI  19
IONIA          CLOUDY    30  24  78 W14G20    29.77R WCI  20
KALAMAZOO        N/A    N/A N/A N/A MISG      29.81R
LUDINGTON      CLOUDY    31  21  67 W9G18     29.76S WCI  23
MARSHALL       CLOUDY    31  24  76 W12G22    29.77S WCI  22
MOUNT PLEASANT MOCLDY    28  22  79 W10       29.75R WCI  18
MUSKEGON       CLOUDY    31  23  72 W13       29.80S WCI  21
SOUTH HAVEN    CLOUDY    32  26  77 NW7G16    29.83R WCI  26
$$
MIZ016>042-040600-
NORTHERN LOWER MICHIGAN

CITY           SKY/WX    TMP DP  RH WIND       PRES   REMARKS
ALPENA         MOCLDY    25  19  78 W8        29.64R WCI  16
BEAVER ISLAND  CLOUDY    23  19  86 W12       29.66R WCI  12
BELLAIRE       CLOUDY    27  23  85 SW3       29.68S
CADILLAC       FLURRIES  25  22  89 W6        29.67R WCI  18
CHARLEVOIX     MOCLDY    25  20  81 W15       29.69S WCI  13
FRANKFORT      PTCLDY    28  21  74 W13G18    29.71F WCI  18
GAYLORD        LGT SNOW  24  22  91 W15       29.61S FOG     WCI  11
GRAYLING       FLURRIES  26  23  89 W8G16     29.66R WCI  17
HARBOR SPRINGS MOCLDY    24  20  85 W8        29.65R WCI  15
HOUGHTON LAKE  CLOUDY    22  18  85 W8        29.67R WCI  12
MANISTEE       CLOUDY    30  19  64 W18G25    29.74R WCI  18
OSCODA         MOCLDY    25  21  85 W6        29.66R WCI  18
PELLSTON       MOCLDY    27  18  69 W17G25    29.63R WCI  14
ROGERS CITY    CLOUDY    25  21  87 W8        29.64S WCI  16
TRAVERSE CITY  PTCLDY    26  22  84 SW5       29.68S WCI  20
$$
MIZ007>008-015-040600-
EASTERN UPPER MICHIGAN

CITY           SKY/WX    TMP DP  RH WIND       PRES   REMARKS
KINROSS        CLOUDY    23  21  93 W15G24    29.58S WCI  10
MACKINAC ISLAN FLURRIES  25  20  83 W16G24    29.61S WCI  12
NEWBERRY       CLOUDY    20  14  77 W20G31    29.64R HAZE    WCI   4
S. S. MARIE    SNOW      24  21  88 W17G28    29.58R VSB 1/2 WCI  11
MUNISING         N/A     22  10  60 NW12G22   29.69R WCI  10
$$
MIZ004>006-011>014-085-040600-
CENTRAL UPPER MICHIGAN

CITY           SKY/WX    TMP DP  RH WIND       PRES   REMARKS
MANISTIQUE     LGT SNOW  24  20  87 NW14      29.66R WCI  11
ESCANABA       CLEAR     21  12  68 NW10G17   29.71R WCI  10
MENOMINEE      MOCLDY    27  12  54 NW9       29.72R WCI  17
SAWYER-GWINN   CLOUDY    18   9  66 W21G28    29.66R WCI   2
$$
MIZ001>003-009>011-084-040600-
WESTERN UPPER MICHIGAN

CITY           SKY/WX    TMP DP  RH WIND       PRES   REMARKS
IRON MOUNTAIN  CLOUDY    19   8  62 NW13G25   29.69R WCI   6
HOUGHTON       PTCLDY    10   3  73 NW22      29.67R HAZE    WCI -10
COPPER HARBOR    N/A     13   4  67 N26G43    29.67R WCI  -7
IRONWOOD       CLOUDY    10   1  67 W22       29.76R WCI  -9
$$

ABBREVIATIONS USED IN REMARKS
   TC - TEMPERATURE IN CELSIUS
  WCI - WIND CHILL INDEX
   HX - HEAT INDEX
  VSB - VISIBILITY



USA.gov is the U.S. government's official web portal to all federal, state and local government web resources and services.